[[{"header":{"parameterUnit":"m.s-1","parameterCategory":1,"la1":30.2991,"la2":30.254,"lo1":-89.0895,"lo2":-89.0444,"dy":0.0017,"dx":0.0017,"nx":28,"ny":28,"refTime":"2025-01-11T09:00:00:Z","depth":0,"parameterNumber":2,"parameterNumberName":"U-component_of_WINDS"},"data":[0,0,0,0,0,0,0,0,0,0,0,0,0,0,0,0,0,0,0,0,0,0,0,0,0,0,0,0,0,0,0,0,0,0,0,0,0,0,0,0,0,0,0,0,0,0,0,0,0,0,0,0,0,0,0,0,0,0,-5.0478,-5.0479,0,-5.0606,-5.0607,-5.0609,-5.0481,-5.0475,-5.047,-5.0466,-5.0604,-5.0612,-5.062,0,0,0,0,0,0,0,0,0,0,0,0,0,-5.013,-5.0137,-5.0477,-5.0479,-5.0481,-5.0606,-5.0607,-5.0609,-5.0481,-5.0475,-5.0469,-5.0463,-5.0601,-5.0611,-5.0621,0,0,0,0,0,0,0,0,0,0,0,0,0,-5.0272,-5.0139,-5.0477,-5.0432,-5.0429,-5.0605,-5.0607,-5.061,-5.0483,-5.0475,-5.0467,-5.046,-5.0598,-5.061,-5.0623,-5.0852,0,0,-5.0661,-5.0667,0,0,0,0,0,0,0,0,-5.0264,-5.0285,-5.0437,-5.0435,-5.0432,-5.0519,-5.0535,-5.0691,-5.0485,-5.0463,-5.0465,-5.0457,-5.0582,-5.0596,-5.0637,-5.0858,-5.0864,-5.0662,-5.067,-5.0675,-5.0679,0,0,0,0,0,0,0,-5.0254,-5.0279,-5.0528,-5.0439,-5.0437,-5.0408,-5.0419,-5.0564,-5.0564,-5.0464,-5.0455,-5.0471,-5.058,-5.0625,-5.0639,-5.0866,-5.0662,-5.0673,-5.0681,-5.0686,-5.1286,-5.1294,0,0,0,0,0,0,-5.0248,-5.0271,-5.0524,-5.0532,-5.0328,-5.042,-5.0433,-5.0499,-5.0562,-5.0564,-5.0478,-5.0465,-5.0607,-5.0624,-5.0643,-5.0919,-5.0675,-5.0687,-5.0694,-5.1278,-5.1288,-5.1297,0,0,0,0,0,0,-5.0241,-5.0272,-5.0519,-5.0399,-5.0428,-5.0434,-5.0509,-5.0506,-5.055,-5.0572,-5.0572,-5.0524,-5.0602,-5.0626,-5.0801,-5.0922,-5.0693,-5.0704,-5.1268,-5.1281,-5.1293,-5.147,0,0,0,0,0,0,-5.0232,-5.027,-5.0356,-5.0402,-5.0435,-5.0673,-5.0516,-5.0514,-5.0572,-5.0556,-5.0615,-5.0618,-5.0598,-5.0783,-5.0814,-5.0935,-5.0714,-5.1257,-5.1274,-5.1289,-5.1453,-5.1487,-5.1516,0,0,0,0,0,-5.022,-5.0401,-5.0361,-5.0392,-5.0542,-5.068,-5.07,-5.0671,-5.0582,-5.0669,-5.0683,-5.0616,-5.0903,-5.0802,-5.0836,-5.0962,-5.125,-5.1269,-5.1288,-5.1439,-5.148,-5.1515,0,0,0,0,0,0,-5.0371,-5.0407,-5.0362,-5.0563,-5.062,-5.0658,-5.0768,-5.0715,-5.0799,-5.0782,-5.0745,-5.0759,-5.0946,-5.0971,-5.0858,-5.1189,-5.1062,-5.1089,-5.1166,-5.1205,-5.1236,-5.1227,-5.0724,0,0,0,0,0,-5.0427,-5.0535,-5.056,-5.0736,-5.0766,-5.0763,-5.0822,-5.0795,-5.0853,-5.0876,-5.0903,-5.0964,-5.1068,-5.1137,-5.1234,-5.1455,-5.1468,-5.1559,-5.159,-5.1616,-5.164,-5.1763,-5.1804,-5.1359,-5.1359,-5.1359,0,0,-5.0546,-5.0578,-5.0649,-5.0767,-5.0807,-5.0922,-5.0783,-5.091,-5.0996,-5.0896,-5.1064,-5.1086,-5.1152,-5.1352,-5.1441,-5.1379,-5.1766,-5.164,-5.166,-5.1671,-5.1786,-5.1829,-5.1866,-5.1372,-5.137,-5.1368,0,0,-5.0821,-5.0855,-5.1006,-5.1049,-5.1111,-5.1108,-5.1144,-5.1192,-5.1202,-5.1369,-5.1298,-5.14,-5.1579,-5.163,-5.1679,-5.1974,-5.1917,-5.2007,-5.2171,-5.2291,-5.2326,-5.2357,-5.2466,-5.2505,-5.203,-5.2031,-5.2031,0,-5.0961,-5.1129,-5.1091,-5.1223,-5.1279,-5.1192,-5.1347,-5.1391,-5.1483,-5.1525,-5.1452,-5.1677,-5.1714,-5.1927,-5.1999,-5.2041,-5.2084,-5.2001,-5.2323,-5.2354,-5.2382,-5.2486,-5.2527,-5.2042,-5.204,-5.2039,-5.2038,0,-5.13,-5.1417,-5.1532,-5.1622,-5.169,-5.1833,-5.182,-5.1894,-5.1861,-5.1866,-5.2039,-5.2081,-5.2187,-5.2234,-5.2204,-5.2444,-5.2404,-5.2328,-5.22,-5.2436,-5.2533,-5.2572,-5.2057,-5.2053,-5.205,-5.2047,0,0,-5.1675,-5.1741,-5.1785,-5.1825,-5.1888,-5.198,-5.212,-5.222,-5.2287,-5.2353,-5.2472,-5.2626,-5.2557,-5.2613,-5.2588,-5.2693,-5.2929,-5.2604,-5.2605,-5.2666,-5.32,-5.3259,-5.3305,-5.2889,-5.2896,-5.2902,-5.3195,0,-5.1954,-5.2195,-5.2166,-5.2398,-5.2508,-5.2428,-5.255,-5.2604,-5.2613,-5.2709,-5.2719,-5.283,-5.2729,-5.2763,-5.2862,-5.2879,-5.3036,-5.2857,-5.3004,-5.3009,-5.2993,-5.3355,-5.3417,-5.3692,-5.3233,-5.3239,-5.3244,0,-5.2312,-5.239,-5.2633,-5.2681,-5.2726,-5.2837,-5.2928,-5.302,-5.308,-5.3079,-5.3143,-5.31,-5.3244,-5.3111,-5.3311,-5.319,-5.3248,-5.3266,-5.3276,-5.3291,-5.3143,-5.3384,-5.3778,-5.3821,-5.3302,-5.3297,-5.3293,0,-5.2566,-5.2732,-5.2899,-5.2936,-5.2995,-5.3075,-5.3104,-5.3156,-5.3219,-5.33,-5.3341,-5.3438,-5.3492,-5.357,-5.3555,-5.3459,-5.3761,-5.3626,-5.3768,-5.3769,-5.3838,-5.3834,-5.4251,-5.387,-5.3869,-5.3868,-5.3868,0,-5.2883,-5.3036,-5.3014,-5.3118,-5.3287,-5.3253,-5.3423,-5.3442,-5.3489,-5.3597,-5.3533,-5.3636,-5.3609,-5.3712,-5.3702,-5.3872,-5.3896,-5.3902,-5.3898,-5.391,-5.391,-5.395,-5.3932,-5.3879,-5.3877,-5.3875,-5.3873,0,-5.3196,-5.3187,-5.3365,-5.3406,-5.342,-5.3544,-5.358,-5.3679,-5.3682,-5.382,-5.385,-5.3857,-5.3975,-5.3967,-5.4101,-5.4094,-5.4305,-5.4277,-5.4284,-5.428,-5.4423,-5.4411,-5.4883,-5.4945,-5.4521,-5.4525,-5.4528,0,-5.34,-5.3516,-5.3569,-5.3636,-5.367,-5.3778,-5.3842,-5.3813,-5.3883,-5.3961,-5.4052,-5.4164,-5.4252,-5.4446,-5.4464,-5.4567,-5.4543,-5.4701,-5.4558,-5.4568,-5.455,-5.4545,-5.4558,-5.4731,-5.4736,-5.4739,-5.4742,0,-5.3766,-5.3756,-5.3849,-5.3942,-5.402,-5.4092,-5.4158,-5.4217,-5.4195,-5.4278,-5.4397,-5.4465,-5.4602,-5.4715,-5.4814,-5.4846,-5.4794,-5.4787,-5.4826,-5.4841,-5.4842,-5.4847,-5.4365,-5.4777,-5.4774,-5.4771,-5.4769,-5.4768,-5.4033,-5.4133,-5.4186,-5.4294,-5.434,-5.4403,-5.4499,-5.4513,-5.4612,-5.4719,-5.4696,-5.4832,-5.4891,-5.5018,-5.506,-5.5167,-5.5111,-5.5166,-5.5181,-5.5196,-5.5214,-5.4822,-5.5184,-5.5183,-5.5182,-5.5182,-5.5181,0,-5.4398,-5.4428,-5.4526,-5.462,-5.4706,-5.4644,-5.4714,-5.4791,-5.491,-5.4969,-5.5057,-5.5196,-5.5306,-5.5332,-5.5439,-5.552,-5.5499,-5.555,-5.5545,-5.5554,-5.5257,-5.5214,-5.5565,-5.5565,-5.5565,-5.5565,-5.5565,-5.5565,-5.4597,-5.4764,-5.4761,-5.4952,-5.4981,-5.5111,-5.5157,-5.5217,-5.5264,-5.5421,-5.5511,-5.5527,-5.5575,-5.5684,-5.5784,-5.5789,-5.5833,-5.5895,-5.5891,-5.5613,-5.5575,-5.5538,-5.5498,-5.5903,-5.5904,-5.618,-5.6182,-5.6184]},{"header":{"parameterUnit":"m.s-1","parameterCategory":1,"la1":30.2991,"la2":30.254,"lo1":-89.0895,"lo2":-89.0444,"dy":0.0017,"dx":0.0017,"nx":28,"ny":28,"refTime":"2025-01-11T09:00:00:Z","depth":0,"parameterNumber":3,"parameterNumberName":"V-component_of_WINDS"},"data":[0,0,0,0,0,0,0,0,0,0,0,0,0,0,0,0,0,0,0,0,0,0,0,0,0,0,0,0,0,0,0,0,0,0,0,0,0,0,0,0,0,0,0,0,0,0,0,0,0,0,0,0,0,0,0,0,0,0,-5.2578,-5.2576,0,-5.2454,-5.2453,-5.2451,-5.2317,-5.2315,-5.2313,-5.2311,-5.2183,-5.2182,-5.218,0,0,0,0,0,0,0,0,0,0,0,0,0,-5.2693,-5.2692,-5.2578,-5.2576,-5.2575,-5.2455,-5.2453,-5.2451,-5.2317,-5.2315,-5.2312,-5.231,-5.2184,-5.2182,-5.218,0,0,0,0,0,0,0,0,0,0,0,0,0,-5.2614,-5.2692,-5.2578,-5.2493,-5.2484,-5.2455,-5.2453,-5.2451,-5.2318,-5.2315,-5.2312,-5.2309,-5.2184,-5.2182,-5.218,-5.2223,0,0,-5.2172,-5.2171,0,0,0,0,0,0,0,0,-5.2619,-5.261,-5.2507,-5.2499,-5.2489,-5.2398,-5.2446,-5.2374,-5.2318,-5.2381,-5.2311,-5.2308,-5.2257,-5.2248,-5.2232,-5.2217,-5.2212,-5.2172,-5.2171,-5.217,-5.2169,0,0,0,0,0,0,0,-5.2624,-5.2614,-5.2529,-5.2506,-5.2495,-5.246,-5.2446,-5.2432,-5.2337,-5.2375,-5.2365,-5.2352,-5.2251,-5.2234,-5.2228,-5.221,-5.2172,-5.217,-5.2169,-5.2168,-5.2219,-5.2221,0,0,0,0,0,0,-5.2643,-5.262,-5.2533,-5.2525,-5.2548,-5.246,-5.2444,-5.243,-5.2336,-5.2319,-5.2355,-5.2347,-5.224,-5.2231,-5.2223,-5.2263,-5.217,-5.2167,-5.2166,-5.2216,-5.2219,-5.2222,0,0,0,0,0,0,-5.2646,-5.2637,-5.2538,-5.257,-5.2554,-5.2462,-5.2447,-5.2429,-5.2412,-5.2321,-5.2303,-5.2355,-5.2237,-5.2226,-5.2223,-5.2257,-5.2166,-5.2164,-5.2213,-5.2217,-5.2221,-5.2348,0,0,0,0,0,0,-5.265,-5.2639,-5.2655,-5.2571,-5.2553,-5.2542,-5.2449,-5.2429,-5.2408,-5.2396,-5.2317,-5.2301,-5.2234,-5.2227,-5.222,-5.2252,-5.2162,-5.2209,-5.2215,-5.222,-5.234,-5.2356,-5.2369,0,0,0,0,0,-5.2655,-5.2697,-5.2657,-5.2647,-5.2572,-5.2544,-5.2534,-5.2456,-5.2412,-5.2426,-5.2367,-5.2303,-5.2255,-5.2228,-5.2219,-5.2251,-5.2207,-5.2213,-5.2219,-5.2333,-5.2352,-5.2369,0,0,0,0,0,0,-5.2787,-5.2684,-5.2639,-5.2655,-5.2609,-5.2521,-5.2538,-5.248,-5.2446,-5.2436,-5.2341,-5.2324,-5.2331,-5.2291,-5.2263,-5.2285,-5.2221,-5.2226,-5.2311,-5.2328,-5.2343,-5.2351,-5.216,0,0,0,0,0,-5.2819,-5.2805,-5.2715,-5.2738,-5.2718,-5.2632,-5.2617,-5.2561,-5.251,-5.249,-5.2431,-5.2382,-5.2355,-5.234,-5.2311,-5.2334,-5.2312,-5.2351,-5.2365,-5.2378,-5.2382,-5.2387,-5.2401,-5.2243,-5.2243,-5.2243,0,0,-5.2883,-5.2825,-5.2822,-5.2763,-5.2721,-5.2707,-5.2617,-5.2607,-5.2595,-5.2488,-5.248,-5.2436,-5.2375,-5.2384,-5.2385,-5.235,-5.2421,-5.2386,-5.2396,-5.2394,-5.2395,-5.241,-5.2423,-5.2247,-5.2247,-5.2246,0,0,-5.2992,-5.2949,-5.296,-5.292,-5.2857,-5.2799,-5.2803,-5.2723,-5.2688,-5.268,-5.2597,-5.2581,-5.2539,-5.2497,-5.2471,-5.2562,-5.2499,-5.2555,-5.263,-5.2635,-5.2648,-5.2658,-5.2687,-5.2698,-5.256,-5.2561,-5.2561,0,-5.3079,-5.3057,-5.2974,-5.2968,-5.2943,-5.2845,-5.2855,-5.282,-5.2751,-5.2735,-5.2698,-5.2639,-5.2592,-5.2587,-5.2609,-5.2592,-5.259,-5.2563,-5.2653,-5.2663,-5.2671,-5.2697,-5.2708,-5.2567,-5.2567,-5.2566,-5.2565,0,-5.3165,-5.315,-5.3168,-5.3102,-5.308,-5.3082,-5.2998,-5.2985,-5.293,-5.2876,-5.2866,-5.2805,-5.276,-5.2755,-5.2703,-5.2742,-5.2722,-5.2671,-5.2604,-5.2694,-5.2717,-5.2726,-5.2577,-5.2575,-5.2573,-5.2571,0,0,-5.3355,-5.3242,-5.325,-5.3217,-5.314,-5.3126,-5.3123,-5.3078,-5.3066,-5.3022,-5.3014,-5.2979,-5.2929,-5.2899,-5.2841,-5.2846,-5.2916,-5.2792,-5.2789,-5.2814,-5.295,-5.2988,-5.3001,-5.2875,-5.2877,-5.2878,-5.2954,0,-5.3447,-5.3436,-5.336,-5.337,-5.3353,-5.3259,-5.3255,-5.3206,-5.3154,-5.3131,-5.3074,-5.3048,-5.2987,-5.2967,-5.2969,-5.2908,-5.2941,-5.2901,-5.2864,-5.2863,-5.2879,-5.3013,-5.3053,-5.3128,-5.2963,-5.2964,-5.2965,0,-5.3554,-5.3515,-5.3523,-5.3442,-5.3432,-5.3431,-5.3381,-5.3362,-5.3303,-5.3264,-5.323,-5.3164,-5.3151,-5.3091,-5.307,-5.3045,-5.3025,-5.2992,-5.2993,-5.2984,-5.2918,-5.3005,-5.3151,-5.3161,-5.2979,-5.2978,-5.2977,0,-5.3687,-5.3637,-5.3633,-5.3609,-5.3516,-5.3516,-5.3477,-5.3415,-5.3392,-5.3349,-5.3332,-5.3289,-5.3264,-5.3231,-5.3153,-5.3117,-5.314,-5.3074,-5.3105,-5.3107,-5.3112,-5.3113,-5.3254,-5.3106,-5.3105,-5.3105,-5.3105,0,-5.3797,-5.3805,-5.3691,-5.3689,-5.3694,-5.3606,-5.3612,-5.3564,-5.3509,-5.3494,-5.341,-5.3397,-5.3297,-5.3272,-5.3211,-5.3201,-5.3192,-5.3158,-5.3141,-5.3164,-5.3168,-5.3147,-5.3139,-5.3108,-5.3107,-5.3107,-5.3106,0,-5.3945,-5.387,-5.386,-5.3772,-5.375,-5.3757,-5.368,-5.3673,-5.3616,-5.3597,-5.3588,-5.3498,-5.3463,-5.3383,-5.3328,-5.3287,-5.3291,-5.3263,-5.3311,-5.33,-5.3334,-5.333,-5.3465,-5.3476,-5.3324,-5.3326,-5.3327,0,-5.4019,-5.4022,-5.3934,-5.3918,-5.3882,-5.3858,-5.3833,-5.3747,-5.3724,-5.3655,-5.3656,-5.3615,-5.3577,-5.3526,-5.3454,-5.341,-5.3378,-5.3428,-5.337,-5.3391,-5.3373,-5.3373,-5.3371,-5.344,-5.3442,-5.3444,-5.3445,0,-5.4156,-5.4118,-5.4087,-5.4042,-5.4015,-5.3975,-5.393,-5.3922,-5.3823,-5.3802,-5.3765,-5.3736,-5.3678,-5.3637,-5.3582,-5.3538,-5.3474,-5.3464,-5.3468,-5.3489,-5.3516,-5.3498,-5.3342,-5.3461,-5.3459,-5.3458,-5.3457,-5.3456,-5.4266,-5.4263,-5.42,-5.4167,-5.4124,-5.4083,-5.4071,-5.4012,-5.3981,-5.3927,-5.3878,-5.3846,-5.3782,-5.3701,-5.3661,-5.3633,-5.3601,-5.3608,-5.3609,-5.3611,-5.3619,-5.3523,-5.3623,-5.3622,-5.3622,-5.3621,-5.3621,0,-5.4396,-5.435,-5.4321,-5.426,-5.4233,-5.4177,-5.4123,-5.4103,-5.4076,-5.4024,-5.3988,-5.3944,-5.3903,-5.3827,-5.3779,-5.377,-5.3739,-5.376,-5.3758,-5.3748,-5.3653,-5.3652,-5.3785,-5.3785,-5.3785,-5.3785,-5.3785,-5.3785,-5.446,-5.445,-5.4405,-5.4372,-5.4325,-5.4294,-5.4268,-5.4228,-5.4185,-5.414,-5.4106,-5.4057,-5.3994,-5.3939,-5.3897,-5.3876,-5.386,-5.389,-5.3859,-5.3771,-5.3755,-5.374,-5.3739,-5.3888,-5.3888,-5.3955,-5.3956,-5.3956]}]]